Theta_e
298 299 298 297 297 297 297 297 297 298 298 299 299 298 298 298 298 298 298 298 298 300 302 302 302 303 303 303 303 303 303 304 303 301 302 302 303 304 303 303 304 303 302 301 301 301 302 302 302 302 303 304 305 308 311 315 318 322 325 327 328 329 329 329 329 329 328 324 321 321 322 321 317 316 317 317 318 318 319 318 319 320 321 324 323 323 325 326
298 298 298 297 297 297 297 297 297 298 299 299 299 299 299 299 298 298 298 298 298 298 300 302 302 302 302 303 303 303 302 304 302 301 302 302 302 302 302 302 303 303 302 301 301 301 302 302 302 302 303 305 306 308 312 315 319 322 325 327 328 328 327 328 329 329 327 324 322 322 322 321 319 317 317 319 321 320 320 318 318 318 319 322 322 323 325 326
298 298 298 298 297 297 297 297 297 298 300 299 299 299 299 299 299 299 299 299 299 298 300 302 302 302 302 302 302 302 302 303 302 301 302 301 302 302 302 302 302 303 302 301 301 302 303 302 302 302 304 305 306 309 313 315 318 320 323 327 327 325 325 326 328 328 326 324 322 322 321 320 318 317 318 320 320 320 319 317 318 317 316 319 322 323 324 326
298 298 298 298 298 298 297 297 298 299 300 299 299 299 299 300 300 300 300 299 299 299 299 300 302 302 302 301 302 302 302 303 303 301 301 301 301 302 302 302 302 303 302 301 300 301 303 303 303 303 304 306 307 310 313 315 319 319 320 323 321 320 323 323 324 325 324 323 322 321 319 318 317 317 320 321 321 318 314 314 317 317 315 318 321 322 323 325
299 298 298 299 298 298 297 297 299 300 300 300 300 301 301 302 301 300 300 300 299 299 299 299 301 302 302 301 302 302 302 303 302 301 301 301 302 302 302 302 302 303 303 301 300 302 303 303 303 303 304 307 308 310 312 314 318 318 316 317 316 318 321 320 322 323 321 321 320 320 319 317 315 315 316 318 319 315 311 313 316 316 317 320 322 322 323 324
299 299 299 298 298 298 297 298 300 300 300 301 302 302 303 302 302 301 300 301 300 300 300 299 300 302 302 302 302 303 303 303 302 301 301 301 302 302 302 302 302 303 302 301 300 302 303 303 304 304 305 307 309 311 313 314 318 318 316 315 317 318 319 319 321 321 320 321 320 319 316 314 314 312 311 311 311 309 310 312 315 317 320 322 322 323 323 324
299 299 299 298 298 298 297 298 300 301 301 302 302 302 302 302 302 301 300 300 301 301 301 300 300 301 302 302 302 302 303 303 301 301 302 302 302 302 302 302 302 303 302 301 300 302 303 304 304 304 306 307 310 313 314 315 318 319 316 315 317 317 317 318 319 319 320 319 317 315 314 314 314 311 309 308 306 307 310 314 316 319 321 321 322 323 324 324
299 299 299 298 298 298 297 299 301 301 302 302 301 302 302 303 303 302 300 300 300 300 301 300 300 301 302 302 302 303 303 302 301 302 302 303 303 303 303 302 302 302 302 300 300 302 304 304 304 304 306 308 311 314 315 316 317 316 315 315 315 315 315 316 316 317 317 315 314 314 312 311 311 309 308 307 306 307 311 315 317 319 320 320 322 323 323 324
299 299 299 298 298 298 297 299 301 301 302 301 301 302 303 303 303 302 301 300 300 300 300 300 300 301 301 302 302 303 303 302 302 302 303 303 303 303 303 303 303 302 301 301 301 303 304 304 304 304 306 309 312 314 314 316 317 314 315 315 315 314 314 315 314 314 314 314 314 313 310 308 309 310 308 305 306 308 310 314 315 318 320 320 321 322 323 323
299 299 299 299 298 298 297 299 301 301 301 300 301 302 303 303 303 302 301 301 300 300 301 300 300 301 301 302 302 303 303 302 302 302 302 302 303 303 303 303 302 302 301 301 301 303 305 304 304 305 308 311 313 313 313 316 316 313 315 315 315 314 314 314 314 314 314 313 314 312 310 310 310 312 310 305 306 308 310 312 313 317 319 320 321 322 322 322
299 299 300 299 299 298 297 298 300 301 300 300 301 302 303 303 303 303 302 302 301 301 301 301 301 301 301 302 303 303 303 302 302 302 302 302 303 303 304 303 302 301 301 303 303 304 305 304 305 306 309 313 313 313 313 314 314 314 316 314 315 315 314 315 314 314 314 313 313 312 312 312 311 311 309 305 305 308 310 311 312 315 317 320 321 321 321 321
300 299 300 299 299 298 298 298 300 301 300 300 301 302 303 303 303 302 302 302 302 302 301 301 302 302 302 303 303 303 303 302 302 303 302 302 302 303 303 303 302 301 302 306 306 305 306 305 306 307 309 313 314 314 314 314 315 316 316 315 315 315 315 314 314 315 315 314 313 315 318 317 312 309 306 305 305 307 311 311 311 314 316 319 319 320 320 321
300 300 300 300 299 299 298 297 300 301 300 300 300 301 303 303 303 303 302 302 302 302 301 301 302 302 303 303 303 303 303 303 303 303 303 303 301 302 303 303 302 300 302 306 307 306 307 306 306 308 310 313 313 314 314 314 317 317 317 317 316 318 316 313 314 316 315 314 313 316 324 321 311 307 306 305 305 306 309 309 311 314 315 317 318 319 319 320
300 300 300 300 299 299 298 297 300 301 300 300 300 301 303 303 303 303 303 302 302 302 302 302 302 302 303 303 303 303 303 303 303 303 304 303 301 302 304 303 302 300 302 306 307 307 307 307 308 310 312 313 312 314 315 315 317 318 319 319 320 322 317 312 313 315 315 314 312 316 325 322 311 308 307 305 305 306 306 306 309 313 313 314 316 318 319 320
300 300 300 300 299 299 298 297 299 301 300 300 300 302 303 303 303 303 303 303 302 302 302 302 302 303 304 304 303 303 303 303 303 303 304 303 301 302 303 303 301 300 303 307 308 308 308 309 311 312 313 313 314 316 316 317 318 318 321 322 321 321 317 312 312 313 315 315 313 318 324 319 311 309 307 306 306 306 306 305 307 311 312 313 315 316 318 320
300 300 300 300 299 299 298 298 299 300 300 300 300 302 303 303 303 303 303 303 302 302 302 302 302 303 304 304 303 303 303 304 304 304 304 303 302 302 302 301 300 300 304 307 308 309 310 310 312 313 313 315 316 318 318 319 319 317 321 323 319 319 317 315 313 311 314 316 315 319 321 317 313 310 307 306 306 306 307 306 306 310 311 310 313 315 317 318
300 300 300 299 299 299 298 298 299 300 300 300 300 301 302 302 302 302 302 302 302 302 302 302 302 303 304 303 303 302 303 304 304 304 304 304 303 302 301 300 299 301 305 309 309 310 310 311 312 313 315 316 317 319 319 321 321 319 320 321 318 318 318 317 315 312 312 316 316 317 317 314 312 310 307 307 307 307 308 307 307 309 310 310 312 315 315 316
300 300 300 299 299 299 299 298 299 300 300 300 300 300 301 302 302 302 302 302 302 302 302 302 303 303 304 303 302 302 303 304 303 304 304 304 304 303 302 301 300 303 307 309 309 310 311 312 313 314 315 317 318 318 318 320 321 320 319 320 318 319 319 317 316 312 312 315 315 317 316 311 309 309 308 307 307 308 308 308 308 308 310 311 312 314 316 318
300 300 300 299 299 299 299 298 298 300 300 300 300 299 299 300 302 302 302 302 302 302 302 302 302 303 303 302 302 302 304 303 303 304 304 304 304 304 303 302 302 306 309 309 310 311 312 313 314 316 316 317 316 315 318 320 320 319 318 319 319 317 316 314 312 309 310 315 314 316 317 311 309 309 308 308 307 308 309 308 308 308 310 311 312 314 317 319
300 300 299 299 298 299 299 298 298 299 300 300 299 299 299 300 302 303 302 301 302 301 301 301 301 301 301 301 302 303 303 303 303 303 304 304 304 304 303 303 305 307 308 309 310 310 312 314 314 314 313 313 311 309 315 319 318 318 318 318 317 317 315 312 310 308 309 314 313 313 314 311 310 309 308 308 306 307 308 307 307 308 310 312 314 317 319 319
300 300 299 299 299 298 299 298 298 299 300 299 299 299 299 299 301 303 302 301 301 301 300 300 300 301 301 301 302 303 303 303 303 303 304 304 303 303 303 304 307 308 307 307 310 311 312 313 311 309 307 306 307 308 314 318 318 318 318 318 317 317 315 311 311 309 309 314 313 311 314 313 311 310 309 307 306 308 308 308 308 309 311 313 317 319 319 320
300 300 300 299 299 298 298 298 298 298 299 299 299 299 298 298 300 302 302 302 301 301 301 300 300 301 301 301 301 302 302 303 304 303 303 303 303 303 303 306 308 309 307 308 311 312 312 311 308 306 305 305 307 312 316 318 318 318 317 318 317 316 315 313 312 310 310 314 313 312 315 313 311 311 310 307 307 308 308 309 311 311 312 314 318 319 318 319
300 300 300 299 299 299 298 298 298 298 298 299 299 299 298 299 301 301 302 302 301 300 301 301 301 301 301 301 301 302 303 302 303 303 303 304 303 304 306 308 309 309 309 310 311 311 311 310 306 305 306 309 312 315 317 317 317 317 317 318 317 315 317 317 314 311 311 314 314 313 315 313 312 312 310 309 309 308 309 310 311 313 314 314 316 317 316 317
300 300 300 300 299 299 298 298 298 297 298 298 298 298 298 299 301 301 301 301 301 301 301 301 301 301 301 301 301 302 303 302 302 303 304 304 304 305 306 307 308 309 309 310 311 311 310 307 304 306 308 312 316 316 316 317 315 315 316 317 317 316 318 317 314 313 313 313 313 314 318 317 314 314 313 311 309 309 309 309 309 311 312 312 313 315 316 317
301 300 300 300 300 299 298 298 298 298 297 297 297 297 297 299 301 301 301 301 301 301 301 301 301 301 301 301 301 302 303 302 301 302 304 305 305 305 305 304 307 309 310 311 310 310 309 306 306 309 312 315 316 315 316 316 315 315 314 315 317 317 317 315 314 316 318 318 312 311 323 324 315 314 316 313 311 312 312 310 310 310 310 310 312 315 317 317
301 300 300 301 300 300 300 298 298 298 297 297 297 297 297 299 300 301 301 301 301 301 301 301 302 301 301 301 301 302 304 303 301 302 304 305 305 305 305 305 306 308 308 309 309 308 307 307 308 312 313 315 315 314 314 314 316 316 312 313 316 317 316 315 317 319 320 320 310 307 319 323 317 315 316 315 314 314 314 314 314 313 310 310 312 315 317 318
302 300 299 300 301 300 300 299 298 297 297 297 297 297 297 299 300 300 301 301 301 301 301 301 302 301 301 300 301 302 303 303 302 303 303 304 305 305 306 306 306 306 303 305 310 307 305 308 311 312 314 315 315 313 311 312 317 315 310 312 316 316 316 316 318 319 316 315 312 309 313 319 319 315 312 313 314 315 315 315 315 315 313 312 312 315 317 318
302 301 300 300 300 300 299 299 298 298 298 298 297 297 298 299 300 300 301 302 300 301 302 301 301 301 300 301 301 301 301 302 303 304 303 304 305 306 306 305 305 306 304 306 311 305 302 307 308 310 314 314 311 309 307 311 315 312 309 312 314 314 315 317 318 316 313 315 318 313 310 316 320 313 309 311 314 315 315 314 315 315 315 313 313 316 317 317
302 301 300 300 300 300 300 299 299 299 299 298 297 298 298 300 300 300 301 301 300 301 301 301 302 301 300 302 302 300 300 301 302 303 303 304 305 305 305 305 306 306 306 307 308 304 302 303 302 305 311 310 307 306 306 311 313 310 309 310 311 311 313 315 316 316 315 317 320 313 308 314 318 313 311 312 314 316 315 314 315 316 315 314 313 316 317 316
302 302 301 300 300 299 300 300 299 300 299 298 298 298 299 300 300 301 301 301 301 301 300 301 301 299 300 302 302 301 301 300 300 302 303 303 304 305 304 305 307 306 306 305 304 303 302 301 300 302 304 304 305 306 307 311 311 309 310 311 312 312 312 312 312 313 317 318 315 309 306 310 314 314 314 313 313 313 313 313 313 314 315 315 314 315 315 315
302 302 301 301 300 299 300 300 300 300 299 298 298 299 299 299 300 302 301 301 301 301 300 300 299 298 299 300 301 300 301 301 299 301 303 302 303 304 303 306 308 308 309 307 306 305 304 303 302 302 301 302 307 309 308 310 310 310 314 315 314 314 313 314 312 313 317 317 311 306 304 307 312 313 312 312 310 309 311 312 310 310 311 310 311 313 314 315
302 302 302 301 301 300 299 300 300 300 299 300 300 299 300 301 301 301 300 301 302 300 299 299 299 299 298 299 299 299 300 301 299 300 300 300 301 300 300 303 305 308 310 308 309 308 306 305 303 303 302 303 308 311 310 310 310 312 316 316 316 315 315 316 314 313 314 311 307 305 305 308 312 312 310 310 309 308 309 309 308 307 306 305 306 309 312 314
302 302 302 302 301 300 300 300 300 300 300 300 300 299 301 303 303 299 298 301 300 297 297 298 297 297 298 300 299 298 299 300 299 300 299 299 301 299 300 300 300 306 310 308 309 310 309 308 304 305 306 303 307 312 313 313 312 314 315 314 316 315 314 315 312 309 310 307 305 304 305 309 312 310 307 307 306 304 303 305 306 305 303 302 303 306 309 310
302 302 302 302 301 300 300 300 299 300 300 300 300 301 304 303 300 298 298 299 297 295 295 296 296 296 297 298 298 298 300 300 299 300 300 300 301 301 302 301 299 304 307 306 308 308 311 311 305 305 306 303 304 307 309 311 311 310 308 309 312 310 311 314 312 309 310 308 306 305 305 309 310 308 305 304 302 301 301 303 305 303 302 303 304 306 307 308
302 302 302 301 301 300 300 299 299 300 300 300 301 303 304 301 298 298 298 297 296 296 295 294 296 299 298 297 296 296 299 301 299 299 300 300 300 299 299 299 298 300 303 307 307 305 308 310 304 302 301 301 303 303 303 309 311 308 305 308 309 306 306 308 306 305 307 308 309 308 307 308 308 306 302 302 301 300 301 303 304 303 302 303 304 304 306 307
301 302 302 302 301 300 300 299 299 300 299 300 305 303 299 298 297 297 298 297 296 296 296 297 298 300 300 299 298 297 298 299 299 299 299 297 298 298 296 297 297 297 300 305 307 306 308 308 304 303 302 299 301 302 300 305 311 310 307 308 306 302 303 305 304 302 303 307 308 307 309 309 308 306 302 301 302 302 302 303 303 303 302 302 302 302 303 304
301 302 302 301 301 301 301 299 299 300 298 301 306 301 295 294 294 294 296 296 295 294 296 300 299 298 300 300 299 298 298 299 298 300 300 298 299 298 295 296 297 296 297 300 304 306 308 308 305 304 305 302 299 301 302 302 306 310 309 305 302 301 303 305 307 304 304 306 306 305 307 308 308 308 304 301 303 303 302 303 303 303 303 302 302 301 301 302
301 302 302 301 302 301 300 300 299 299 298 303 305 298 293 293 293 293 294 294 295 295 296 300 298 296 298 299 299 297 297 300 299 299 300 300 300 298 296 297 297 296 295 296 302 305 305 309 308 304 305 304 301 304 308 304 302 306 306 303 302 305 306 306 306 306 305 305 305 304 304 305 308 309 306 305 305 304 303 302 304 304 304 304 302 301 301 302
301 302 301 300 301 301 300 300 299 298 301 306 304 297 294 294 293 293 293 293 294 295 296 298 296 296 297 297 298 296 296 299 299 298 299 300 300 297 296 296 297 297 295 295 301 304 304 309 310 306 305 306 305 306 308 306 303 303 304 301 301 304 306 305 303 305 306 305 304 304 305 306 308 307 306 306 305 305 304 302 304 305 304 304 303 302 303 303
301 302 302 300 300 300 299 299 298 300 303 302 298 296 293 294 294 293 293 294 294 295 297 296 295 297 297 296 296 296 295 296 296 297 298 298 299 298 295 294 296 297 296 296 299 301 304 309 310 308 308 308 305 301 301 302 303 304 306 304 303 301 301 302 301 300 303 305 304 303 306 308 306 303 304 304 302 303 304 304 305 305 304 303 303 303 304 303
301 302 302 301 300 300 299 300 297 296 298 296 294 295 294 295 296 294 294 295 294 294 295 295 295 296 296 296 296 295 295 296 295 296 298 298 300 299 295 294 295 296 297 300 300 300 304 310 310 309 309 307 301 296 294 296 297 300 303 303 303 302 302 305 303 297 298 303 303 302 306 307 304 299 300 300 299 300 301 303 305 304 303 304 304 303 303 302
302 304 302 301 301 300 300 302 294 291 296 296 294 295 296 296 295 294 294 294 295 294 294 294 294 294 295 296 296 295 296 296 295 296 297 297 298 297 295 293 294 294 297 300 300 298 301 306 307 304 302 299 296 292 292 292 292 296 298 297 299 301 304 307 306 301 298 298 298 299 304 306 301 297 299 299 298 298 298 300 303 303 303 303 302 301 300 299
302 303 301 301 302 300 301 304 298 293 295 294 292 294 295 295 294 293 294 294 295 295 294 295 294 294 294 294 294 295 296 296 296 296 296 296 296 295 294 294 294 294 297 301 301 299 301 305 304 302 300 297 294 292 291 289 291 297 298 295 297 299 301 302 303 302 301 299 300 301 304 306 301 297 297 298 297 297 298 299 302 302 302 301 299 298 297 297
302 301 301 301 301 301 303 306 304 299 295 293 293 295 294 294 294 294 294 294 294 295 295 295 293 294 294 292 294 295 295 298 298 295 295 297 296 295 294 294 295 295 298 301 301 301 304 306 306 307 307 305 301 299 298 296 295 299 298 295 295 295 296 299 299 301 302 301 301 303 305 305 301 296 297 298 298 299 299 299 301 301 300 299 298 297 297 297
301 301 300 300 301 301 302 303 302 301 298 297 297 295 295 295 295 294 294 293 293 293 295 295 293 293 293 292 294 294 293 296 298 296 295 296 296 295 294 295 295 295 296 295 296 299 302 302 304 309 310 309 308 306 305 303 300 298 296 294 294 294 296 301 302 302 304 300 298 303 306 305 301 298 298 300 300 301 301 300 300 300 300 299 297 297 297 297
302 303 302 301 300 300 299 297 298 301 300 300 299 296 296 297 296 294 294 294 293 292 293 294 293 294 295 294 297 298 295 294 297 297 296 296 296 294 293 295 295 295 295 293 293 296 299 298 299 306 310 307 305 302 297 298 301 302 299 296 295 294 295 299 302 304 304 300 299 303 304 303 303 301 300 301 300 301 301 300 300 299 300 299 297 297 297 297
303 305 303 302 301 300 299 297 296 298 299 300 300 297 296 298 296 295 295 294 293 292 292 292 293 296 298 297 299 299 296 295 298 298 296 295 295 294 293 294 295 296 297 295 293 296 303 302 296 300 305 297 295 295 291 293 299 301 301 299 297 294 294 298 303 303 302 301 303 304 300 301 304 303 302 302 301 301 301 300 299 299 299 298 298 298 298 297
303 302 300 301 302 302 303 301 297 296 297 298 298 296 297 299 297 296 296 294 293 293 294 295 295 296 298 297 299 300 298 299 300 298 296 296 295 296 296 294 294 296 296 295 293 295 305 303 293 296 301 292 289 291 290 293 296 295 297 298 297 295 295 300 303 300 301 305 305 301 298 300 303 302 302 302 301 301 301 300 299 298 297 298 298 298 298 298
302 301 299 300 302 299 300 299 296 298 300 299 299 298 299 302 299 296 295 294 294 293 294 298 298 297 299 298 299 301 301 301 302 299 297 298 297 297 298 297 295 294 295 296 294 292 300 302 293 295 300 294 290 290 289 292 295 296 297 296 295 295 296 299 300 297 298 303 300 295 295 298 299 299 300 300 298 299 300 299 298 298 297 297 298 298 299 298
301 302 300 300 300 296 296 296 297 302 302 300 301 300 298 301 300 297 294 295 298 296 294 298 300 297 296 297 299 302 300 300 302 300 298 299 299 297 298 299 297 294 295 298 296 294 298 299 292 294 299 296 292 290 290 291 294 299 299 294 293 295 295 295 296 295 296 299 298 294 294 297 298 298 297 296 295 295 296 298 298 298 298 298 298 299 299 299
302 302 301 302 302 298 297 297 297 302 304 302 302 301 299 301 300 297 296 294 296 297 294 296 298 294 293 295 298 301 297 295 298 298 296 298 299 298 298 297 296 296 298 297 296 298 301 297 291 294 301 300 293 291 294 293 293 297 301 298 295 296 297 297 296 295 297 300 299 297 298 301 301 297 295 294 293 293 295 297 298 298 298 298 299 299 299 299
301 302 301 303 304 299 297 297 296 301 305 302 300 300 300 299 297 296 299 296 292 294 294 293 295 295 294 296 297 297 295 294 295 295 295 297 296 295 296 295 294 297 299 297 296 296 297 299 296 296 300 300 293 292 296 297 297 301 303 301 297 296 297 297 295 295 296 299 300 300 302 304 300 296 297 297 294 294 296 298 298 298 298 299 299 299 299 300
Wind_Speed
9 8 7 5 5 5 4 3 2 3 4 5 5 5 6 6 7 7 7 7 6 6 5 4 5 5 5 5 5 5 7 8 7 9 9 11 11 8 8 8 7 7 4 2 2 4 6 7 9 11 13 14 13 16 16 16 17 11 5 7 8 8 8 9 11 9 10 14 16 17 16 13 11 9 12 13 13 15 14 12 11 12 15 19 23 25 24 23
9 9 8 7 6 5 4 3 1 2 4 4 5 6 7 8 10 11 12 10 7 6 5 4 4 4 5 5 5 4 7 7 4 7 11 12 10 9 9 7 7 7 4 1 2 5 6 7 10 13 15 13 11 14 13 13 14 6 3 7 6 4 4 5 10 10 11 17 19 18 16 14 14 13 12 10 13 15 14 12 12 15 17 22 25 23 23 23
10 10 9 8 7 5 4 2 1 1 3 4 5 7 9 11 12 12 12 9 7 6 5 4 4 4 4 5 5 4 6 5 3 6 9 10 11 11 10 9 6 6 5 1 3 6 7 8 12 15 16 11 10 14 11 10 10 3 3 7 3 3 5 4 6 9 13 23 24 19 17 15 13 12 11 14 15 12 10 9 11 14 15 21 24 22 23 22
11 10 9 8 7 5 4 2 1 0 3 5 7 9 10 10 10 9 9 7 4 4 5 6 6 4 4 6 6 5 5 3 1 6 9 10 11 11 11 11 6 6 5 1 3 6 8 10 13 16 13 7 8 12 7 7 8 2 2 3 2 3 4 4 5 13 18 24 24 20 18 16 12 10 13 17 13 6 5 4 8 14 16 21 23 21 21 20
11 11 10 9 7 5 3 2 1 1 3 5 6 7 7 6 7 7 7 7 5 2 4 6 7 5 4 6 5 5 5 2 1 6 10 10 11 10 11 11 8 5 4 2 3 7 9 11 14 13 9 5 8 9 4 5 7 5 2 3 4 2 3 4 9 20 21 21 22 20 16 14 14 11 9 11 7 5 6 5 10 16 20 23 22 21 20 19
12 11 10 9 8 5 3 2 2 1 2 4 5 6 6 6 7 7 6 5 4 4 3 5 7 6 4 5 5 4 3 1 3 8 10 10 10 10 10 11 10 6 3 1 4 7 9 13 14 10 6 4 6 6 5 6 6 5 3 5 5 3 6 7 12 21 23 22 19 16 14 16 18 12 10 11 9 8 9 9 14 19 21 22 21 20 19 18
12 12 10 9 8 5 2 3 3 2 2 4 6 8 8 9 7 6 7 5 4 5 5 3 5 6 5 4 4 3 2 1 5 8 10 10 10 10 9 9 9 7 4 1 4 8 10 13 12 9 7 4 3 5 8 8 6 6 6 7 9 11 11 11 15 19 22 22 17 17 18 15 15 10 11 14 11 9 11 13 18 21 20 19 20 19 18 16
12 12 11 10 8 5 2 5 4 3 3 5 7 9 11 10 9 7 8 8 5 4 5 4 2 5 5 3 3 2 2 3 7 9 10 10 10 9 8 7 8 6 3 1 4 9 10 11 12 10 5 3 6 7 10 11 10 8 7 7 10 14 15 16 20 23 24 23 23 24 19 14 15 14 12 12 8 9 11 14 17 19 18 17 19 19 17 15
12 12 12 10 8 5 2 6 5 5 4 5 8 11 13 13 11 8 7 7 7 5 4 3 1 3 4 3 3 2 2 6 9 10 10 10 9 8 6 6 6 5 2 1 6 9 9 11 12 9 5 6 9 8 6 4 5 7 10 12 15 16 16 20 22 22 23 22 25 25 16 14 17 14 11 8 7 8 10 13 15 17 17 16 17 17 16 15
10 12 11 10 9 5 2 6 6 5 4 6 9 13 15 14 12 9 7 6 7 6 4 3 2 2 3 2 3 2 3 7 8 9 8 8 8 7 5 5 5 4 2 3 6 8 9 10 11 11 10 10 8 5 1 3 10 16 20 19 19 19 16 18 20 18 19 16 18 20 12 11 10 6 5 4 7 8 10 12 13 15 16 16 16 16 16 15
9 11 11 9 8 6 3 7 7 6 5 7 10 13 15 15 13 10 9 8 7 5 4 3 2 1 1 1 2 2 4 5 6 8 7 6 6 5 3 3 3 3 3 4 5 8 9 11 15 13 9 9 9 10 9 15 24 26 28 23 19 20 17 15 15 13 13 10 14 21 15 8 7 5 5 6 7 7 10 12 12 14 15 16 16 16 16 16
9 10 11 9 7 6 3 8 8 7 5 8 10 12 15 15 12 10 10 10 8 6 4 2 1 1 1 4 5 3 5 6 6 8 8 7 6 4 3 2 1 3 4 5 6 8 9 14 15 8 8 14 11 11 12 21 26 24 24 20 14 16 14 11 8 7 8 8 12 17 12 5 6 5 5 7 7 7 10 11 11 13 15 15 15 15 15 15
9 10 11 10 7 5 3 8 10 8 6 8 9 12 15 15 11 8 9 11 10 7 3 1 2 2 2 4 5 5 6 7 7 9 9 8 6 3 2 1 0 3 6 7 7 8 10 12 10 9 16 16 6 10 16 15 15 15 15 14 11 10 7 8 5 7 9 8 7 4 4 3 4 5 5 6 7 8 10 10 10 12 13 15 14 14 13 14
9 10 11 11 6 4 3 8 12 10 7 8 9 12 16 16 11 8 8 10 12 9 3 2 2 1 3 3 4 6 7 6 7 9 7 6 5 2 1 2 1 4 8 8 8 8 8 10 12 15 17 15 14 20 19 8 6 10 11 9 8 7 3 6 5 4 5 5 1 4 3 5 5 6 5 5 7 7 8 7 9 12 12 13 13 13 12 11
10 11 12 11 6 4 4 8 13 12 9 9 9 13 17 17 13 8 6 7 11 10 3 3 2 2 3 3 3 6 6 4 7 8 6 4 2 1 1 2 3 6 9 9 8 8 11 13 13 13 15 22 25 19 12 6 5 6 7 6 4 5 5 4 6 4 2 5 2 5 2 4 5 8 6 7 7 5 7 6 8 11 10 11 11 11 11 11
11 13 13 10 6 3 6 10 14 14 11 10 10 13 17 19 16 9 4 4 7 11 6 2 3 3 3 3 2 6 7 5 8 9 5 3 1 1 1 3 5 9 11 9 9 11 14 13 13 16 18 20 16 10 9 9 5 1 3 6 6 7 7 4 4 6 3 4 3 5 3 4 4 8 7 8 7 5 6 6 7 9 9 9 9 10 10 10
13 14 13 9 6 1 6 12 17 16 13 11 10 12 16 18 19 14 9 6 3 7 9 4 2 1 4 7 5 9 10 7 10 8 3 2 2 1 3 4 6 11 12 10 11 12 12 11 14 15 10 8 7 9 10 9 8 4 3 6 7 8 8 5 3 4 5 2 3 6 4 4 4 8 8 9 9 6 5 6 7 8 8 8 9 10 9 8
15 14 12 9 7 3 5 14 19 19 16 12 10 10 11 13 17 18 16 12 5 3 6 7 3 2 3 10 9 11 9 6 9 5 2 2 2 2 3 6 10 13 12 10 9 9 9 8 9 8 4 6 7 7 8 10 11 10 9 9 9 9 9 7 4 2 4 5 5 5 5 4 5 7 7 8 10 8 6 6 6 7 8 8 8 9 8 6
16 13 10 9 8 6 2 14 21 20 17 14 10 6 5 5 8 15 19 17 12 4 3 7 6 1 2 9 12 11 6 7 9 3 2 1 2 4 4 8 13 12 8 7 5 5 7 7 6 7 8 7 4 1 2 7 12 14 14 12 11 9 7 6 4 2 2 6 6 3 4 4 5 5 5 8 9 8 6 6 6 7 8 8 8 8 6 7
16 11 9 9 9 8 3 12 21 22 18 15 11 7 1 2 1 7 14 17 14 8 5 6 7 4 3 8 13 10 4 6 10 4 2 2 4 5 6 9 11 8 3 3 5 4 5 7 5 5 5 3 2 2 0 11 17 17 15 13 12 10 7 4 4 2 1 3 5 3 4 4 5 5 5 7 7 7 6 6 7 8 8 9 9 9 9 9
15 10 8 9 9 8 5 8 18 22 19 16 13 8 2 1 1 1 7 12 12 8 8 10 9 7 5 7 12 10 3 6 10 6 2 4 5 4 4 7 7 5 3 2 6 6 5 6 3 3 3 2 2 5 4 16 18 15 14 13 11 9 7 4 3 3 1 1 4 4 4 3 3 4 5 7 7 7 8 8 8 9 9 9 9 10 11 12
14 8 7 9 8 7 7 7 13 20 20 17 14 9 3 1 1 2 2 5 8 8 8 10 12 13 9 8 11 11 7 6 10 9 3 4 3 2 4 5 5 6 4 3 7 8 6 5 3 5 3 1 1 3 10 17 14 12 12 12 10 8 9 6 4 4 1 0 4 6 5 2 1 3 5 7 7 6 8 8 8 9 9 9 11 11 12 13
13 7 6 8 7 7 6 6 9 16 19 18 16 12 6 2 2 3 3 2 4 8 8 8 13 17 14 10 10 10 10 8 9 11 6 4 3 5 6 5 7 7 4 4 8 8 7 4 4 4 2 3 7 7 13 14 8 8 9 10 11 10 9 5 2 5 5 4 6 8 5 2 3 3 4 7 6 5 7 9 9 9 9 10 11 12 11 12
13 6 5 7 7 6 5 6 7 11 15 17 16 14 9 4 3 1 3 1 1 5 9 8 11 17 15 11 10 7 8 11 12 12 9 7 6 8 7 5 7 8 6 7 10 9 8 3 4 2 3 5 12 12 12 11 6 5 4 7 13 12 8 7 6 7 8 7 5 6 4 3 5 6 6 5 5 6 7 8 10 11 12 11 12 11 10 10
12 7 4 5 6 6 5 5 5 7 10 13 14 13 10 6 4 2 2 0 1 4 8 8 8 14 16 13 10 4 5 11 14 14 10 9 8 6 5 5 5 6 8 12 13 11 8 5 2 2 2 6 12 9 4 6 8 5 4 2 12 14 12 12 11 8 5 4 3 1 4 4 5 7 8 7 6 9 9 10 12 12 12 12 12 11 10 10
12 7 4 4 5 5 4 4 4 6 8 10 11 11 10 6 5 3 1 0 2 4 7 8 6 10 15 15 10 1 3 7 12 16 11 8 8 5 4 4 4 6 7 8 8 5 5 6 2 5 6 7 10 7 2 1 8 7 2 1 9 14 14 13 10 6 4 3 2 0 2 2 4 5 7 8 9 11 12 14 16 14 12 13 14 13 11 10
11 7 4 3 3 5 4 3 4 6 7 8 8 10 9 6 5 3 3 0 4 4 6 7 6 9 12 14 11 1 1 4 6 14 13 8 9 8 6 4 3 4 1 1 5 3 5 6 5 5 7 7 8 6 3 3 5 6 1 3 10 13 12 10 7 4 3 3 3 1 3 2 2 3 3 5 8 10 12 15 17 17 17 16 16 15 13 10
12 7 4 3 2 4 4 3 4 5 5 6 8 8 7 4 4 3 2 1 3 3 4 5 6 11 11 11 14 8 4 5 3 9 13 9 9 9 9 6 6 7 4 1 5 3 4 4 4 2 4 5 3 1 4 2 5 4 3 5 9 10 8 6 6 5 2 2 4 4 6 3 3 3 3 3 6 9 11 12 14 18 20 18 18 19 16 13
12 7 5 3 3 4 4 3 4 4 4 7 8 7 6 4 3 2 1 1 2 3 4 6 6 12 13 9 15 14 8 9 6 6 11 11 9 11 10 9 14 15 13 10 7 3 3 3 2 2 2 4 2 3 4 2 5 7 7 8 8 8 7 5 5 5 3 3 3 5 6 3 3 3 4 3 4 6 7 8 11 15 17 17 19 22 20 16
12 7 5 4 3 3 4 3 3 3 5 8 9 7 6 3 2 1 3 0 1 3 5 6 5 10 14 8 10 14 10 9 10 8 12 13 14 17 13 11 16 13 11 14 10 3 2 3 3 4 4 1 1 3 4 1 11 14 10 10 9 7 6 4 3 3 4 3 2 4 6 3 2 2 3 3 1 1 1 2 4 9 11 13 17 21 20 20
11 8 5 4 3 3 4 4 3 5 7 9 9 8 6 2 0 2 2 1 0 3 3 5 4 6 10 5 5 11 8 7 11 9 9 10 11 12 7 6 10 8 8 10 7 5 5 5 3 3 5 3 1 6 8 7 10 8 8 10 9 5 4 4 3 1 4 3 2 4 4 3 4 1 2 2 2 1 1 1 2 1 4 6 11 17 19 20
10 10 6 3 3 3 4 4 5 7 7 9 9 7 4 0 2 2 1 3 2 3 2 2 3 4 5 3 5 8 5 5 8 7 6 4 6 6 4 3 2 5 7 4 4 7 7 5 2 3 5 7 1 6 7 4 2 4 10 11 7 6 5 4 2 2 2 1 2 2 3 3 5 1 1 1 2 1 1 1 2 2 1 0 5 12 16 19
8 12 8 3 2 3 4 5 6 7 8 8 7 4 2 1 2 1 2 2 2 2 1 1 3 4 4 3 5 5 3 3 5 4 3 2 4 4 2 5 4 1 4 2 4 6 4 3 6 4 3 8 5 4 5 3 3 6 9 5 4 7 5 4 3 1 1 1 1 2 1 2 4 1 1 0 1 1 1 2 2 1 2 1 2 6 10 13
6 12 11 4 2 3 5 6 6 7 8 7 4 1 2 3 1 1 1 1 1 1 1 1 3 2 2 3 3 4 3 5 5 5 3 2 4 3 3 8 9 3 3 2 3 4 3 4 6 5 2 7 6 2 1 3 4 2 1 1 1 3 1 3 3 1 2 2 2 0 1 2 2 1 1 1 1 2 2 2 2 1 2 2 3 2 4 6
4 10 11 5 2 4 6 6 5 7 8 5 1 2 3 2 1 1 1 1 1 1 1 0 1 0 3 3 2 3 3 4 4 5 6 4 3 4 3 5 8 5 1 1 2 1 3 5 4 4 4 5 4 3 4 2 4 2 2 2 1 2 1 3 2 2 2 1 2 2 2 2 1 2 1 1 0 0 1 3 4 3 3 4 5 5 5 6
3 7 10 6 3 5 6 6 6 7 6 3 1 3 2 0 1 1 2 2 1 2 1 1 1 1 2 1 2 3 4 3 3 2 4 4 2 3 3 3 5 5 2 1 2 1 3 4 3 3 2 3 4 3 3 2 2 2 1 1 2 2 1 4 3 2 1 2 2 1 3 2 1 2 2 2 3 2 2 4 4 4 5 5 6 7 9 9
2 5 8 6 4 6 7 6 7 7 4 1 3 3 1 1 1 1 3 2 1 2 2 1 1 2 1 1 2 4 4 2 3 2 2 1 2 3 3 3 2 2 3 2 2 1 3 6 2 2 3 3 3 2 6 9 3 2 2 4 3 0 0 1 2 2 0 2 2 1 3 3 2 1 2 4 5 4 4 4 4 5 6 6 7 9 10 11
1 2 6 6 4 6 7 6 6 5 2 3 4 2 0 0 1 1 2 2 1 2 1 1 2 2 0 1 2 4 4 2 2 3 2 1 2 2 2 3 1 2 5 3 1 1 1 6 4 3 1 1 4 2 4 11 10 4 6 5 2 1 1 1 1 2 2 1 1 0 2 3 5 3 1 4 7 7 6 5 5 7 7 7 8 9 10 10
1 1 4 5 4 4 5 5 4 3 1 3 2 2 1 0 0 0 0 1 1 2 1 2 1 1 1 1 1 2 3 3 2 1 1 2 2 1 2 2 2 2 4 3 1 1 1 3 3 1 3 2 2 2 2 5 7 6 7 3 1 2 1 1 1 1 1 2 1 1 1 2 4 2 1 1 4 7 8 6 7 8 8 9 10 10 10 9
2 0 2 3 3 4 4 4 3 2 2 2 1 2 1 1 2 2 1 0 0 1 1 1 1 1 1 1 1 1 2 3 2 1 2 1 1 2 2 1 2 3 3 2 1 1 2 2 5 3 2 2 1 4 2 1 2 1 2 1 2 2 1 1 2 2 1 1 1 0 1 1 1 1 0 1 1 3 6 5 6 7 9 11 11 10 10 9
2 0 1 1 3 4 4 5 6 5 3 2 2 2 1 3 4 3 1 2 1 1 2 1 1 1 1 1 1 1 1 3 2 1 2 1 1 2 2 3 3 4 4 1 1 1 2 2 6 6 2 1 3 3 2 3 3 2 1 1 1 1 1 1 2 1 1 1 0 1 2 1 2 1 1 1 2 2 4 4 5 8 12 12 12 11 10 9
2 0 2 2 3 3 3 4 4 4 2 2 2 2 2 3 4 3 2 3 1 1 2 2 2 1 1 2 1 0 1 2 2 1 1 2 2 2 2 4 3 3 3 0 1 2 1 3 6 5 2 2 2 1 0 2 4 2 1 1 0 0 0 1 1 2 1 0 0 0 2 1 2 1 2 2 3 3 7 8 7 10 14 13 11 10 9 8
2 1 2 1 4 4 3 3 2 2 2 1 2 3 2 2 2 3 2 2 1 1 1 1 0 1 2 1 1 1 0 1 2 1 1 1 1 1 3 5 3 2 2 1 1 1 1 2 4 3 1 1 1 1 1 2 2 2 0 1 0 0 2 2 1 1 2 2 1 1 2 0 2 1 2 3 3 3 8 11 10 11 13 12 10 9 9 10
4 3 3 2 3 3 0 1 2 1 1 1 1 3 2 1 1 1 1 1 1 2 2 1 0 1 2 0 1 1 1 0 1 1 1 1 1 1 3 5 3 2 2 1 1 0 0 0 2 5 5 3 2 2 3 2 2 2 1 2 0 2 3 2 2 1 1 2 1 2 3 0 2 1 2 2 2 3 6 9 11 11 11 10 9 9 10 11
4 3 4 4 1 1 1 2 4 4 2 2 2 2 2 2 1 1 1 2 2 2 2 2 1 2 2 0 2 2 1 1 1 0 0 1 1 1 3 5 3 2 1 2 1 0 1 0 1 4 6 4 3 2 2 1 2 1 1 1 2 2 3 1 2 1 3 2 1 3 3 1 1 1 2 2 2 4 6 8 10 10 10 10 11 10 11 12
3 1 1 3 4 4 5 5 7 7 4 3 3 1 1 2 1 1 2 2 3 3 4 2 2 2 1 0 2 3 3 2 1 2 1 1 1 1 3 4 3 2 2 4 3 2 3 2 2 2 2 1 1 1 2 2 1 2 2 3 3 2 1 0 1 2 2 3 3 5 3 4 4 2 4 5 5 6 7 8 10 12 12 12 12 11 11 12
2 1 0 1 2 5 8 6 6 7 4 4 2 1 3 3 2 2 1 0 3 4 3 3 1 1 1 2 2 2 2 2 2 3 2 1 1 0 1 2 3 2 0 2 3 1 3 2 2 3 3 2 2 1 2 3 0 2 2 4 5 4 3 4 4 3 4 4 4 4 3 4 7 2 4 6 7 6 7 9 11 13 13 14 14 12 12 13
2 2 2 2 1 1 3 3 5 7 5 2 1 1 3 3 2 2 1 0 2 4 1 2 1 1 1 2 2 2 1 2 3 2 1 1 1 1 1 1 2 3 1 2 4 2 3 2 0 1 1 1 1 1 2 2 1 0 1 3 5 5 7 8 6 3 5 5 3 2 3 7 8 3 2 5 7 8 9 11 13 13 14 16 16 14 13 13
3 3 3 3 2 2 3 5 8 8 5 2 1 1 3 4 3 1 1 2 1 3 2 2 3 3 2 2 2 2 2 2 2 0 2 2 1 1 1 2 2 3 2 2 4 3 2 2 1 1 1 1 1 2 2 1 0 2 4 4 5 7 8 7 3 1 3 5 3 1 3 9 10 7 6 7 7 9 10 12 14 14 15 16 16 15 14 14
3 3 5 6 5 6 6 7 8 6 2 1 1 1 3 4 3 2 2 1 1 1 2 2 4 5 1 2 2 2 2 3 1 2 5 3 1 1 1 1 1 2 3 2 2 3 1 2 1 0 1 1 1 2 2 2 2 3 4 4 5 5 5 6 4 1 3 6 4 1 5 10 9 7 9 10 9 9 11 13 15 16 16 17 17 16 16 15
4 3 6 6 4 3 3 4 4 2 0 1 1 2 3 3 4 5 3 1 1 1 1 1 5 5 0 1 1 1 1 2 2 5 7 4 2 4 2 1 3 2 2 1 2 3 2 2 1 0 1 1 2 2 2 3 3 4 7 7 8 6 4 5 5 6 7 5 3 3 5 8 4 3 4 6 7 9 12 16 18 18 17 18 18 18 17 16
6 5 6 5 2 1 2 2 2 1 1 1 1 2 2 3 6 6 2 1 2 2 2 5 7 3 1 2 2 2 3 6 8 10 10 8 8 8 7 6 5 3 2 2 1 3 1 3 3 1 2 2 1 2 1 2 2 4 6 8 13 12 7 4 5 9 12 8 5 5 6 3 2 3 3 4 6 10 16 21 22 21 19 19 19 18 16 15
Wind_Direction
334 337 339 331 322 309 302 300 299 352 9 13 10 1 355 354 344 336 333 333 336 338 337 339 355 8 17 22 20 27 17 6 3 13 30 33 24 7 353 350 344 343 336 309 218 195 182 177 176 172 167 166 167 169 169 170 173 176 188 202 201 197 187 169 174 167 134 144 148 158 167 143 131 132 122 113 107 109 103 96 105 118 126 137 142 146 144 139
343 344 341 332 326 316 302 294 280 2 22 19 8 355 345 341 332 323 318 310 302 301 297 303 328 347 354 359 1 8 5 8 13 13 27 25 13 8 360 351 341 337 339 320 210 183 172 170 167 164 162 157 157 163 164 165 170 176 197 198 205 179 144 148 170 159 137 149 148 154 162 142 137 137 134 131 126 124 107 97 108 113 121 137 145 147 144 142
350 346 342 337 332 322 304 278 234 358 21 11 356 345 338 334 329 325 325 318 293 270 260 266 290 326 336 340 345 344 351 7 24 9 15 12 4 6 3 357 344 334 336 298 199 175 163 163 163 160 158 151 152 163 160 162 171 175 204 195 185 89 87 78 150 149 144 147 143 148 149 131 131 137 139 135 129 125 112 113 127 125 128 143 151 150 146 145
348 343 342 341 336 326 305 260 203 38 9 356 343 338 335 334 334 340 346 347 331 257 240 248 262 296 326 334 339 339 338 345 31 4 359 355 355 356 356 357 351 334 330 280 194 170 158 157 160 157 154 141 146 160 155 164 170 130 194 197 41 43 82 64 115 128 134 141 139 140 135 122 125 134 141 138 128 117 107 117 144 142 141 147 153 154 150 148
344 342 342 342 339 327 303 239 152 55 4 353 344 343 345 350 356 355 351 354 6 333 245 239 247 266 308 331 341 349 328 278 56 356 347 347 347 345 347 352 352 341 329 282 203 168 157 157 158 156 150 131 148 157 134 144 141 93 57 29 11 328 88 90 126 129 131 132 131 133 130 125 122 107 119 135 125 128 121 112 140 146 148 150 153 154 151 152
342 341 343 345 341 326 296 187 132 73 18 15 19 22 24 24 16 2 349 342 357 6 327 251 242 248 278 324 337 354 342 299 5 346 338 339 340 341 340 344 349 345 336 302 195 171 162 158 159 159 144 121 149 148 116 140 142 107 67 44 43 52 102 109 120 131 136 128 124 127 120 122 119 90 72 81 76 111 130 136 147 149 151 152 152 154 153 156
342 339 340 347 345 324 276 161 140 128 85 65 55 45 37 31 23 12 6 360 349 360 359 307 246 236 255 311 335 356 24 16 336 334 333 332 335 337 334 338 346 344 341 316 191 175 165 162 162 157 136 113 130 119 107 106 88 99 101 67 67 76 91 106 112 126 131 119 113 117 109 107 111 95 75 73 72 106 134 150 153 150 152 153 153 155 154 156
342 338 336 343 348 330 237 158 151 154 123 89 62 44 35 29 26 23 22 21 13 360 3 346 255 230 244 285 331 348 40 352 328 330 328 326 331 332 328 333 341 344 350 304 188 170 166 168 164 153 132 119 132 129 121 97 61 74 107 94 82 80 86 103 111 117 116 109 114 112 95 87 102 103 82 68 80 111 136 150 151 150 153 156 156 156 154 156
342 337 335 338 342 334 208 165 161 163 131 87 57 43 33 28 26 29 29 25 21 15 12 4 302 240 241 272 313 303 357 337 327 330 326 323 325 325 321 325 341 350 11 122 172 169 168 170 164 157 130 119 127 130 138 119 65 84 109 106 97 91 93 103 104 107 110 112 120 112 88 95 108 103 80 66 104 125 144 148 147 149 153 159 158 156 156 156
336 334 334 336 335 332 213 174 170 173 134 76 56 44 33 28 26 30 33 20 15 15 21 13 333 264 248 277 308 312 346 332 328 332 332 328 323 324 319 313 346 9 55 123 167 170 167 167 158 145 126 118 118 102 74 122 117 111 105 96 96 95 91 101 101 103 109 106 117 115 101 106 103 91 89 100 127 139 152 148 147 151 152 160 159 156 158 156
333 332 333 333 329 328 240 181 175 178 130 73 58 46 33 29 27 33 34 21 9 0 8 6 344 308 291 28 48 14 351 338 339 343 342 342 329 318 309 305 357 43 99 117 155 168 163 157 146 137 126 128 112 78 81 115 121 117 105 92 93 96 86 92 99 105 108 87 99 108 103 84 60 62 101 123 140 155 158 149 153 156 153 156 158 157 157 153
336 333 334 334 325 321 251 185 178 177 126 76 63 48 35 30 27 36 37 29 22 1 347 344 34 46 17 62 64 39 3 355 348 343 340 342 338 310 287 289 14 76 121 123 138 158 153 150 148 139 134 140 121 87 107 124 122 118 108 101 102 100 80 62 73 105 109 109 115 108 104 62 42 80 112 124 143 163 162 154 156 159 155 154 157 157 156 153
339 335 338 337 324 312 253 189 177 171 128 85 69 52 41 33 25 30 36 32 31 22 11 87 123 75 51 72 64 36 6 355 337 334 332 326 326 305 263 230 58 105 135 133 129 147 152 155 151 135 135 134 109 115 130 131 122 114 106 111 119 108 71 26 50 119 107 124 144 114 134 121 74 126 138 128 141 158 158 153 159 161 157 156 157 155 154 154
339 339 341 336 319 289 246 190 175 166 132 100 77 60 48 38 25 15 27 37 35 33 46 107 130 70 64 93 66 32 5 341 322 325 328 317 318 305 227 166 155 130 142 136 126 141 150 149 138 132 133 123 113 120 123 124 127 121 112 118 132 127 94 19 30 119 113 131 189 309 189 135 125 154 158 144 145 156 151 146 162 165 161 158 156 153 153 155
340 343 344 340 318 260 225 187 173 163 138 113 85 68 55 45 35 12 11 43 40 34 52 113 86 75 87 82 36 11 357 341 327 329 342 333 321 290 205 147 144 138 141 133 122 135 138 136 130 122 120 123 127 126 120 120 122 129 132 137 142 129 122 58 19 7 100 135 17 324 176 122 133 156 163 163 153 158 157 151 164 167 166 163 157 155 159 165
342 346 351 352 337 255 206 185 171 162 147 125 97 77 63 52 46 37 25 41 44 37 39 123 87 76 76 40 358 354 2 7 345 341 358 2 18 204 152 131 138 139 138 129 120 129 133 129 119 117 125 132 137 135 126 128 129 190 155 139 134 128 132 111 28 359 20 126 41 357 144 122 128 149 159 172 165 164 165 164 168 171 173 171 169 166 169 174
348 352 360 7 0 301 195 182 170 163 154 137 114 87 71 57 50 52 49 42 61 47 43 66 105 116 47 28 1 345 357 5 349 351 21 33 66 121 132 131 140 137 130 120 120 126 127 123 122 123 133 148 154 144 138 150 163 170 140 126 129 133 138 130 93 14 6 100 70 35 90 107 118 143 154 172 178 178 182 183 178 181 185 184 186 180 179 177
352 358 10 19 16 13 183 179 172 166 161 153 136 104 80 61 50 52 52 46 49 47 41 40 28 183 44 19 355 339 348 0 352 1 76 45 74 107 125 134 138 134 125 117 115 120 121 121 132 135 143 159 165 164 162 169 168 161 146 132 131 133 131 127 121 18 17 87 94 71 95 108 124 144 153 171 186 189 191 197 189 194 200 200 200 192 187 183
355 2 22 27 21 23 144 177 176 172 170 168 162 146 88 59 46 49 50 48 50 53 26 19 18 31 342 352 352 347 359 16 1 8 124 85 91 104 125 134 135 135 133 133 115 108 127 130 142 147 153 160 157 196 162 139 140 141 138 130 127 123 108 108 101 5 27 93 83 70 107 133 145 150 160 172 191 196 189 197 198 203 206 210 212 202 202 204
358 8 31 30 25 30 80 173 180 179 178 180 184 194 162 44 19 45 49 53 60 72 59 30 28 23 336 347 358 358 21 30 18 32 147 125 107 111 120 129 136 131 118 136 116 113 150 143 137 135 141 119 59 291 46 105 118 126 128 124 120 116 99 96 93 45 326 75 66 65 99 132 146 150 165 171 190 201 191 193 202 207 207 212 212 205 214 219
1 12 36 36 30 35 69 159 183 185 185 190 197 205 204 355 283 52 59 59 59 64 55 40 36 29 16 12 8 10 35 36 34 48 137 137 120 119 121 135 144 121 70 77 103 118 153 137 101 27 12 21 347 261 146 113 121 124 124 128 123 121 112 95 84 75 306 54 96 113 112 111 142 157 168 173 191 202 195 196 203 206 207 213 216 213 222 228
4 16 42 42 37 42 69 128 177 189 193 196 204 207 208 268 74 61 69 76 55 47 41 31 34 30 24 22 15 21 31 28 35 41 78 139 134 125 136 139 129 112 106 127 123 129 139 115 51 358 334 242 207 203 128 116 123 122 127 137 130 129 120 92 50 58 14 94 131 148 126 94 203 183 182 190 203 210 203 208 215 211 210 220 227 227 223 223
8 18 42 46 48 49 68 107 157 188 197 202 210 213 217 225 128 67 48 95 52 33 24 15 24 23 20 19 9 18 35 32 20 21 50 117 109 94 113 110 101 109 111 134 142 141 129 96 3 333 293 151 128 128 119 112 111 115 133 144 140 150 142 118 76 78 68 70 130 156 135 118 205 199 210 209 213 227 223 226 231 227 224 225 229 230 222 216
11 17 42 51 54 53 69 96 135 176 194 205 214 217 220 215 183 48 28 96 18 17 13 8 14 15 14 10 5 18 48 41 22 16 45 87 93 88 90 74 83 96 86 93 106 103 96 54 340 300 245 146 125 121 118 116 101 74 89 136 148 156 134 115 136 122 93 76 104 157 159 160 180 190 209 203 203 229 234 229 230 230 228 226 226 227 224 221
12 17 35 55 61 62 73 90 124 157 179 198 209 216 216 207 213 272 342 97 6 1 3 6 8 11 8 1 6 37 69 44 25 20 47 80 86 97 80 47 62 94 101 93 92 92 74 12 332 129 139 126 121 117 107 123 127 98 19 110 148 145 122 123 144 149 146 117 84 178 205 174 164 191 202 188 196 221 225 226 231 229 225 227 229 228 229 230
13 18 26 58 71 65 71 88 116 144 167 188 198 205 206 202 218 255 277 183 29 353 351 1 2 9 6 358 357 11 100 45 23 26 48 76 74 106 100 43 59 94 100 92 92 97 36 7 37 117 111 107 110 108 4 34 136 131 31 66 139 131 124 136 153 163 168 144 102 213 249 183 152 181 194 190 203 217 220 228 235 233 229 230 234 234 232 232
13 20 28 55 78 67 74 95 122 141 160 178 184 190 197 202 211 235 248 216 32 359 352 2 0 5 1 0 5 40 96 17 18 31 43 72 76 98 102 56 70 81 57 142 104 63 354 13 50 92 111 112 112 107 342 314 132 125 139 161 135 127 130 143 147 139 113 108 128 67 349 302 183 144 165 192 207 216 219 225 229 231 232 234 238 240 237 233
15 26 38 46 89 82 79 102 132 137 141 161 166 171 183 187 192 220 238 37 12 352 2 2 4 7 2 17 36 57 51 12 17 30 38 73 86 89 87 69 85 72 15 215 126 77 353 12 30 42 103 104 105 29 336 3 87 97 148 139 123 117 119 127 122 111 97 161 152 44 0 280 213 112 122 188 215 226 227 225 224 225 228 231 237 238 237 237
16 29 47 50 92 97 91 112 137 139 133 147 148 155 167 159 175 199 106 42 332 346 1 3 7 359 357 26 39 36 37 32 33 38 49 69 86 91 90 84 87 72 48 61 93 88 21 23 15 345 61 73 31 330 302 331 83 119 132 108 103 96 83 87 108 119 143 195 153 33 357 278 213 143 146 181 222 235 227 225 228 226 225 226 232 236 238 242
15 25 48 58 92 105 101 108 134 147 136 138 138 146 151 139 198 155 51 327 316 357 343 4 6 341 350 18 31 21 28 29 20 40 63 66 78 87 89 90 88 79 66 69 75 101 87 72 69 40 30 353 51 41 341 60 120 138 140 112 105 92 81 80 66 111 168 183 118 19 350 313 244 161 156 173 190 251 198 191 222 226 225 223 228 235 238 241
15 20 38 59 83 105 112 108 132 144 133 134 137 140 140 122 237 102 61 251 318 10 344 9 5 342 2 28 24 9 16 24 12 24 50 52 63 67 61 84 90 93 91 75 77 94 67 58 57 18 15 337 169 76 50 85 119 142 150 129 112 98 113 114 76 186 200 173 81 359 338 291 247 193 109 158 146 134 212 99 78 178 216 219 227 234 237 241
22 21 24 54 81 102 121 120 133 141 136 136 137 138 159 230 31 82 336 296 345 13 6 3 352 352 353 12 28 4 358 23 17 25 34 28 51 43 19 38 77 117 97 71 90 73 38 40 8 324 23 11 41 109 85 94 136 164 151 144 130 130 146 142 136 207 221 117 51 349 341 269 251 251 75 173 168 164 246 305 16 29 34 216 227 232 235 240
25 20 17 38 91 106 129 134 138 144 142 139 139 141 152 69 57 73 293 329 20 8 354 317 325 334 316 347 29 360 1 23 357 22 32 354 56 74 81 39 354 158 100 85 113 74 46 63 7 350 36 0 358 126 132 141 178 160 149 156 146 136 148 156 147 250 259 120 51 345 330 245 247 264 66 200 77 30 298 272 280 346 8 6 208 222 229 232
14 14 12 18 97 121 139 142 141 150 150 143 145 143 69 67 86 189 307 349 358 316 335 313 298 320 8 34 17 331 32 54 358 8 28 358 44 55 58 36 15 26 86 86 93 60 98 99 18 7 5 343 2 56 67 97 114 115 81 304 128 115 152 161 158 186 159 117 83 160 230 244 236 109 88 322 4 325 271 233 193 99 64 67 98 154 192 207
347 9 9 10 93 132 149 152 148 156 162 159 126 60 71 82 212 185 25 322 279 292 261 207 295 31 64 45 20 340 14 53 16 13 35 34 38 25 10 11 7 7 29 100 97 59 92 81 16 353 335 338 22 7 328 67 106 78 311 279 35 17 38 110 91 75 100 103 135 186 246 278 254 145 136 247 190 224 221 166 155 136 108 92 96 115 132 150
320 8 11 16 92 136 150 157 158 156 164 179 65 53 65 56 253 120 26 328 304 328 284 185 359 35 68 34 36 20 6 24 14 13 41 41 45 33 5 338 358 1 340 69 113 152 112 85 353 334 44 35 44 41 13 29 138 153 165 137 62 6 105 111 99 70 320 230 153 178 259 269 253 192 152 164 171 149 147 156 155 156 148 127 117 120 122 128
288 4 14 25 90 133 147 157 163 163 162 128 80 68 49 32 6 3 6 346 302 327 296 171 19 1 47 43 13 1 351 6 5 10 43 30 45 40 360 332 349 352 341 16 66 13 115 110 42 354 94 60 353 44 61 39 18 203 142 124 129 262 354 100 109 96 334 235 146 168 261 278 269 211 131 164 187 174 166 165 162 174 174 155 138 129 125 126
263 354 15 34 87 125 136 142 155 169 154 70 84 94 160 62 2 323 349 347 277 303 317 92 35 347 280 120 47 347 330 342 10 20 44 29 43 37 342 338 331 340 344 343 76 11 96 104 72 356 54 20 322 267 88 43 27 59 111 125 166 215 141 115 112 133 155 221 244 262 290 276 229 209 121 176 190 183 171 170 181 186 182 168 154 141 134 133
162 11 22 42 80 118 122 130 154 183 118 68 95 130 163 162 34 250 341 350 301 295 353 44 21 13 36 73 86 6 351 28 37 16 33 29 32 25 357 345 295 324 336 309 147 93 338 91 109 335 325 299 345 1 125 61 42 74 109 125 298 353 34 67 47 301 213 181 224 345 304 249 213 201 28 159 186 178 170 176 191 188 179 174 164 152 150 150
175 9 22 50 81 104 108 110 106 85 68 73 127 149 153 168 151 146 144 86 350 318 25 29 347 69 76 32 26 34 35 48 56 32 29 34 45 57 45 5 298 321 320 269 144 67 332 61 133 135 337 246 119 30 1 38 49 107 130 128 101 65 11 113 82 4 326 184 181 235 223 201 98 128 321 347 309 189 180 185 187 180 176 175 169 164 167 167
175 330 344 61 112 108 89 73 60 55 74 93 98 123 171 165 148 142 136 132 85 43 70 71 48 66 88 76 34 65 76 61 54 47 57 54 44 66 42 4 334 316 309 260 107 35 352 64 122 132 100 88 82 38 346 339 337 320 354 17 73 78 186 178 133 79 357 323 193 242 273 351 71 112 253 285 297 249 220 206 184 181 180 176 175 179 179 173
132 75 331 295 184 147 75 57 46 41 80 104 89 114 158 153 144 149 147 139 115 76 95 91 75 69 65 44 34 160 140 62 41 29 60 33 16 42 359 341 328 304 307 75 38 353 3 82 96 102 78 56 55 50 259 308 303 297 356 2 13 47 262 296 181 150 124 30 38 266 286 347 97 159 248 257 281 253 213 205 194 185 182 178 181 186 180 174
119 68 355 11 163 150 83 72 60 29 51 78 85 108 131 146 136 145 158 152 149 146 102 86 69 60 57 42 80 148 237 47 41 17 71 85 39 44 337 331 334 310 308 115 96 325 352 78 88 92 86 153 176 174 208 285 277 247 183 79 334 317 22 24 40 111 154 182 169 209 251 257 102 152 248 252 269 237 202 202 197 188 185 183 185 187 180 178
111 79 54 86 170 202 284 97 123 88 92 123 83 99 115 134 127 135 192 196 163 152 123 106 130 81 78 121 134 115 300 38 59 352 38 104 88 41 349 350 2 328 328 54 78 231 153 102 136 130 130 156 192 197 200 204 226 252 93 89 31 96 103 108 114 119 226 200 158 246 243 224 91 127 263 248 234 226 208 206 201 192 190 187 184 187 185 182
125 85 59 63 50 256 156 142 141 134 148 144 112 118 119 102 88 104 141 155 149 135 121 113 112 111 115 146 100 79 8 33 102 318 53 95 84 30 2 6 3 321 38 62 28 53 114 86 173 144 144 161 177 195 220 186 170 181 102 169 194 137 145 164 114 181 227 166 153 231 239 328 80 176 222 219 216 228 219 213 211 202 193 190 190 191 188 186
144 122 43 51 46 67 88 117 133 128 146 160 120 139 160 110 100 132 118 131 152 129 97 104 144 136 125 140 93 65 25 23 89 113 106 98 94 23 352 20 40 45 66 60 44 82 107 73 20 36 95 96 91 82 334 347 138 158 167 179 180 175 232 199 133 208 192 136 197 233 250 307 289 203 194 212 212 218 217 211 213 210 200 194 193 194 193 192
152 162 193 80 63 75 81 91 112 114 140 174 144 144 158 125 114 157 162 230 175 159 93 75 145 178 160 159 121 84 39 16 61 94 89 71 88 56 325 33 49 52 40 2 10 76 131 109 37 36 46 15 2 28 336 324 284 165 166 167 176 181 183 193 209 197 137 147 244 239 182 258 271 226 193 216 213 216 219 209 209 211 203 196 195 196 198 197
162 176 174 155 146 81 82 96 112 106 107 125 103 111 143 145 157 169 172 142 186 203 188 95 153 232 173 165 137 118 112 32 48 81 141 136 143 142 105 84 52 51 48 346 3 29 114 114 117 87 69 319 290 333 304 293 46 66 217 192 182 179 183 199 216 192 174 207 277 44 155 233 259 263 201 219 217 221 224 214 208 206 199 197 199 200 202 202
125 125 141 148 126 100 111 129 127 113 90 76 101 153 168 170 173 153 114 114 177 243 236 194 191 182 168 194 160 136 168 146 79 207 198 127 117 215 111 102 71 40 22 20 21 18 91 108 117 156 122 279 298 331 316 308 286 247 234 209 194 195 204 220 252 274 234 260 301 38 259 263 263 251 245 252 245 232 224 215 207 201 198 198 201 204 208 209
160 140 145 131 98 88 102 124 129 114 68 30 99 175 178 176 170 145 133 153 170 210 242 233 162 151 170 221 180 145 179 175 124 177 175 147 122 205 169 93 105 57 25 34 15 351 20 91 87 171 228 276 351 1 354 360 332 265 248 217 190 191 216 243 268 250 251 272 262 198 279 279 262 234 241 254 245 224 212 204 201 200 199 201 204 209 212 212
198 177 160 137 100 79 99 115 116 104 94 257 198 170 182 199 178 144 113 32 31 130 248 173 132 127 117 174 145 34 181 164 119 133 150 150 151 161 153 164 173 143 53 58 346 343 36 102 117 130 251 266 14 9 354 9 350 277 265 235 193 180 196 213 213 196 196 209 175 150 255 268 243 170 225 237 218 209 205 199 200 201 201 204 209 212 214 214
205 191 177 156 113 122 151 117 75 117 172 156 134 157 181 172 160 149 111 67 80 62 118 149 135 118 92 93 68 55 119 124 111 108 112 107 110 119 113 115 135 136 124 130 43 5 86 132 140 164 238 247 2 5 359 358 313 262 264 224 191 190 199 194 209 217 206 188 160 189 228 246 96 122 202 204 192 204 206 200 200 202 203 208 213 214 216 218